FW5866 Weather Reports


Display with metric or nautical units.
time (UTC)temp
F
wind
direction
speed
MPH
gust
MPH
rain 1hr
in
rain 24hr
in
rain mn
in
humidity
%
barometer
mb
20260504040045 61 0 0.0 0.0 0.00 0.00 0.00 69 1020.4
20260504034549 62 0 0.0 0.0 0.00 0.00 0.00 63 1020.4
20260504033056 63 0 0.0 0.0 0.00 0.00 0.00 63 1020.5
20260504031556 63 0 0.0 0.0 0.00 0.00 0.00 63 1020.3
20260504030047 64 0 0.0 0.0 0.00 0.00 0.00 63 1020.5
20260504024540 64 0 0.0 0.0 0.00 0.00 0.00 62 1020.2
20260504023048 64 0 0.0 0.0 0.00 0.00 0.00 62 1020.3
20260504021547 64 0 0.0 1.0 0.00 0.00 0.00 61 1020.4
20260504020051 64 166 2.0 6.0 0.00 0.00 0.00 61 1020.2
20260504014601 66 0 0.0 0.0 0.00 0.00 0.00 57 1019.9
20260504013047 67 0 0.0 0.0 0.00 0.00 0.00 56 1019.6
20260504011548 70 0 0.0 0.0 0.00 0.00 0.00 53 1019.4
20260504004548 72 0 0.0 0.0 0.00 0.00 0.00 50 1019.4
20260504003046 74 0 0.0 0.0 0.00 0.00 0.00 50 1019.4
20260504001553 74 289 0.0 3.0 0.00 0.00 0.00 51 1019.6
20260504000048 75 290 1.0 2.0 0.00 0.00 0.00 50 1019.5
20260503234549 75 283 1.0 6.0 0.00 0.00 0.00 49 1019.4
20260503233056 76 311 3.0 7.0 0.00 0.00 0.00 49 1019.7
20260503231547 76 290 1.0 6.0 0.00 0.00 0.00 47 1019.8
20260503230051 77 0 1.0 9.0 0.00 0.00 0.00 46 1019.8
20260503224547 78 302 2.0 6.0 0.00 0.00 0.00 44 1019.9
20260503223050 78 0 3.0 7.0 0.00 0.00 0.00 46 1019.8
20260503221557 78 0 1.0 7.0 0.00 0.00 0.00 45 1019.9
20260503214544 78 0 1.0 5.0 0.00 0.00 0.00 45 1020.3
20260503213043 78 0 2.0 8.0 0.00 0.00 0.00 44 1020.5
20260503211549 78 0 0.0 3.0 0.00 0.00 0.00 44 1020.6
20260503210055 78 0 0.0 1.0 0.00 0.00 0.00 44 1020.9
20260503204558 77 0 0.0 1.0 0.00 0.00 0.00 45 1021.1
20260503203049 77 0 0.0 0.0 0.00 0.00 0.00 45 1021.3
20260503201549 77 0 0.0 2.0 0.00 0.00 0.00 44 1021.7
20260503200053 77 0 0.0 2.0 0.00 0.00 0.00 47 1021.8
20260503194605 77 0 0.0 3.0 0.00 0.00 0.00 48 1022.2
20260503193048 77 0 0.0 1.0 0.00 0.00 0.00 48 1022.6
20260503191546 76 0 0.0 1.0 0.00 0.00 0.00 50 1022.7
20260503190057 76 0 0.0 0.0 0.00 0.00 0.00 50 1022.8
20260503184556 76 0 0.0 1.0 0.00 0.00 0.00 50 1023.0
20260503183105 76 0 0.0 11.0 0.00 0.00 0.00 51 1023.1
20260503181547 75 0 0.0 1.0 0.00 0.00 0.00 52 1023.2
20260503180105 75 0 0.0 1.0 0.00 0.00 0.00 52 1023.5
20260503174550 75 0 0.0 3.0 0.00 0.00 0.00 55 1023.5
20260503173131 74 0 0.0 4.0 0.00 0.00 0.00 56 1023.7
20260503171549 74 0 0.0 1.0 0.00 0.00 0.00 57 1023.7
20260503130104 57 0 0.0 0.0 0.00 0.00 0.00 83 1023.6
20260503081556 52 0 0.0 0.0 0.00 0.00 0.00 76 1022.0
20260503071549 54 0 0.0 0.0 0.00 0.02 0.00 75 1021.6
20260503054543 56 0 0.0 0.0 0.00 0.13 0.00 75 1021.5
20260503053046 57 0 0.0 0.0 0.00 0.13 0.00 72 1021.4
20260503051548 57 0 0.0 0.0 0.00 0.13 0.00 72 1021.3
20260503050047 58 0 0.0 0.0 0.00 0.13 0.00 71 1021.0
20260503044545 58 0 0.0 0.0 0.00 0.18 0.13 71 1021.1
20260503043046 58 0 0.0 0.0 0.00 0.18 0.13 70 1021.3
20260503041548 59 0 0.0 0.0 0.00 0.18 0.13 69 1021.3